Location: *
(38.9555°S, 57.3572°E)
Time: 01:46:50
(UTC+00:00)

Cosmos 2228 - Pass Details

Date: 15 July 2020
Orbit: 590 x 617 km, 82.5° (Epoch: 06 August)

Event Time Altitude Azimuth Distance (km) Brightness Sun altitude
Rises 14:04:34 0° 32° (NNE) 2,882 6.3 -11.0°
Reaches altitude 10° 14:07:23 10° 51° (NE) 1,984 5.3 -11.5°
Maximum altitude 14:10:20 18° 93° (E) 1,540 4.5 -12.1°
Enters shadow 14:10:49 18° 102° (ESE) 1,554 4.5 -12.2°
